Voltar ao catálogo

ARIANE 40 R/B

AtivoSSO
NORAD 21610·ROCKET BODY·🇫🇷 France

Lançado Jul 17, 1991 de Guiana Space Centre

Loading…

Próximas Passagens (próximas 24 horas)

TLE

AtualizadoSource: Space-Track

Época: Sep 14, 2026, 13:39 UTC

1 21610U 91050F   26257.56896142  .00000177  00000-0  65324-4 0  9997
2 21610  98.1795 302.4695 0002539 197.1921 162.9184 14.43000257846239

Acompanhe ARIANE 40 R/B em tempo real com AllMySat

Download on the App Store